CT1ETE Weather Reports


time (UTC)temp
C
wind
direction
speed
KPH
gust
KPH
rain 1hr
cm
rain 24hr
cm
rain mn
cm
humidity
%
barometer
mb
20260506083739 13 289 1.6 6.4 0.00 0.13 0.00 80 1014.5
20260506082939 13 255 3.2 6.4 0.00 0.13 0.00 82 1014.5
20260506081429 12 248 3.2 6.4 0.00 0.13 0.00 82 1014.5
20260506072231 11 115 4.8 11.3 0.00 0.13 0.00 85 1014.4
20260506070731 11 110 6.4 11.3 0.00 0.13 0.00 86 1014.5
20260506062227 9 115 4.8 6.4 0.00 0.13 0.00 75 1014.3
20260506060727 8 115 4.8 9.7 0.00 0.13 0.00 79 1014.2
20260506050723 8 115 0.0 1.6 0.00 0.13 0.00 81 1014.1
20260506043721 8 115 0.0 0.0 0.00 0.13 0.00 82 1014.1
20260506042221 8 115 0.0 4.8 0.00 0.13 0.00 83 1014.1
20260506040718 9 115 1.6 6.4 0.00 0.13 0.00 84 1014.2
20260506035213 9 115 1.6 9.7 0.00 0.13 0.00 84 1014.3
20260506033712 9 115 4.8 9.7 0.00 0.13 0.00 84 1014.4
20260506032211 9 51 4.8 6.4 0.00 0.13 0.00 84 1014.4
20260506030708 9 51 4.8 6.4 0.00 0.13 0.00 85 1014.4
20260506025207 10 5 0.0 3.2 0.00 0.13 0.00 86 1014.5
20260506023704 10 5 0.0 1.6 0.00 0.13 0.00 86 1014.6
20260506022905 10 237 0.0 0.0 0.00 0.13 0.00 86 1014.7
20260506020701 10 237 0.0 3.2 0.00 0.13 0.00 86 1014.8
20260506015201 10 237 3.2 4.8 0.00 0.13 0.00 86 1015.0
20260506013701 10 237 3.2 4.8 0.00 0.13 0.00 86 1015.2
20260506012201 10 237 1.6 4.8 0.00 0.13 0.00 86 1015.4
20260506010701 10 240 1.6 3.2 0.00 0.13 0.00 86 1015.5
20260506005201 10 240 0.0 3.2 0.00 0.13 0.00 86 1015.6
20260506003701 10 240 0.0 3.2 0.00 0.13 0.00 86 1015.8
20260506002201 10 240 1.6 4.8 0.00 0.13 0.00 86 1015.9
20260506000700 10 240 0.0 11.3 0.00 0.13 0.00 86 1016.0
20260505235158 10 240 6.4 12.9 0.00 0.13 0.00 86 1016.1
20260505233656 10 251 4.8 12.9 0.00 0.13 0.00 86 1016.2
20260505232156 10 238 1.6 4.8 0.00 0.13 0.00 86 1016.2
20260505230655 10 238 3.2 11.3 0.00 0.13 0.00 86 1016.1
20260505225154 10 242 6.4 14.5 0.00 0.13 0.13 86 1016.1
20260505223655 11 248 0.0 4.8 0.00 0.13 0.13 85 1016.3
20260505222155 11 248 6.4 11.3 0.00 0.13 0.13 85 1016.3
20260505220653 11 271 4.8 14.5 0.00 0.13 0.13 84 1016.2
20260505215152 11 236 9.7 14.5 0.00 0.13 0.13 84 1016.3
20260505214354 11 232 9.7 17.7 0.00 0.13 0.13 84 1016.3
20260505212153 11 254 8.0 17.7 0.00 0.13 0.13 83 1016.3
20260505210652 11 246 11.3 17.7 0.00 0.13 0.13 82 1016.3
20260505205152 11 235 8.0 14.5 0.00 0.13 0.13 83 1016.3
20260505205052 12 242 8.0 14.5 0.00 0.13 0.13 82 1016.2
20260505202153 12 248 8.0 14.5 0.00 0.13 0.13 82 1016.1
20260505200652 12 222 8.0 16.1 0.00 0.13 0.13 81 1015.9
20260505195153 12 267 6.4 17.7 0.00 0.13 0.13 80 1015.7
20260505193650 12 242 6.4 14.5 0.00 0.13 0.13 79 1015.6
20260505192851 13 272 8.0 16.1 0.00 0.13 0.13 78 1015.5
20260505190650 13 254 8.0 17.7 0.00 0.13 0.13 77 1015.4
20260505185150 13 279 8.0 16.1 0.00 0.13 0.13 75 1015.4
20260505184357 14 272 8.0 20.9 0.00 0.13 0.13 73 1015.5
20260505182150 15 257 11.3 22.5 0.00 0.13 0.13 71 1015.2
20260505180650 15 282 14.5 24.1 0.00 0.13 0.13 71 1015.2
20260505175151 15 299 11.3 24.1 0.00 0.13 0.13 71 1015.1
20260505173651 15 267 12.9 24.1 0.00 0.13 0.13 67 1015.2
20260505172840 15 248 9.7 17.7 0.00 0.13 0.13 72 1015.2
20260505170644 14 284 12.9 19.3 0.00 0.13 0.13 76 1015.4
20260505165144 14 259 11.3 19.3 0.00 0.13 0.13 75 1015.4
20260505163644 15 244 12.9 27.4 0.00 0.13 0.13 76 1015.4
20260505162144 14 272 14.5 24.1 0.00 0.13 0.13 76 1015.4
20260505161336 14 255 11.3 22.5 0.00 0.13 0.13 78 1015.2
20260505160537 15 244 16.1 27.4 0.00 0.13 0.13 77 1015.2
20260505152142 15 234 8.0 19.3 0.00 0.13 0.13 82 1015.2
20260505150641 14 234 4.8 11.3 0.03 0.13 0.13 83 1015.6
20260505123631 15 219 12.9 20.9 0.00 0.00 0.00 66 1015.8
20260505122132 15 238 11.3 20.9 0.00 0.00 0.00 70 1016.0
20260505120632 14 234 11.3 24.1 0.00 0.00 0.00 74 1016.2
20260505115130 14 240 9.7 19.3 0.00 0.00 0.00 73 1016.3
20260505113629 14 263 6.4 16.1 0.00 0.00 0.00 67 1016.4
20260505112130 14 300 8.0 17.7 0.00 0.00 0.00 69 1016.3
20260505110627 14 293 8.0 20.9 0.00 0.00 0.00 70 1016.4
20260505102128 13 244 8.0 14.5 0.00 0.00 0.00 75 1016.4
20260505100625 13 242 9.7 19.3 0.00 0.00 0.00 74 1016.4
20260505095125 13 244 4.8 11.3 0.00 0.00 0.00 77 1016.4
20260505093623 12 251 6.4 12.9 0.00 0.00 0.00 79 1016.4
20260505092120 12 198 4.8 12.9 0.00 0.00 0.00 80 1016.3
20260505090619 12 238 4.8 12.9 0.00 0.00 0.00 80 1016.4
20260505085120 12 259 1.6 9.7 0.00 0.00 0.00 81 1016.4